Time,TemperatureF,DewpointF,PressureIn,WindDirection,WindDirectionDegrees,WindSpeedMPH,WindSpeedGustMPH,Humidity,HourlyPrecipIn,Conditions,Clouds,dailyrainin,SoftwareType,DateUTC
2013-03-17 00:03:00,46.0,40.0,29.95,NW,311,0.0,4.0,80,0.00,,,0.00,,2013-03-17 04:03:00,
2013-03-17 00:13:00,46.0,40.0,29.95,NW,311,0.0,4.0,80,0.00,,,0.00,,2013-03-17 04:13:00,
2013-03-17 00:23:00,46.0,41.0,29.95,NNW,343,1.0,2.0,81,0.00,,,0.00,,2013-03-17 04:23:00,
2013-03-17 00:32:00,46.0,41.0,29.95,North,359,2.0,0.0,81,0.00,,,0.00,,2013-03-17 04:32:00,
2013-03-17 00:43:00,46.0,41.0,29.95,North,359,2.0,0.0,81,0.00,,,0.00,,2013-03-17 04:43:00,
2013-03-17 00:53:00,45.0,40.0,29.93,NNE,30,1.0,0.0,82,0.00,,,0.00,,2013-03-17 04:53:00,
2013-03-17 01:02:00,45.0,40.0,29.94,North,3,0.0,0.0,82,0.00,,,0.00,,2013-03-17 05:02:00,
2013-03-17 01:12:00,45.0,40.0,29.94,North,3,0.0,0.0,82,0.00,,,0.00,,2013-03-17 05:12:00,
2013-03-17 01:22:00,45.0,40.0,29.94,NNW,339,3.0,3.0,83,0.00,,,0.00,,2013-03-17 05:22:00,
2013-03-17 01:32:00,45.0,40.0,29.95,WNW,301,3.0,4.0,82,0.00,,,0.00,,2013-03-17 05:32:00,
2013-03-17 01:42:00,45.0,40.0,29.95,WNW,301,3.0,4.0,82,0.00,,,0.00,,2013-03-17 05:42:00,
2013-03-17 01:52:00,45.0,40.0,29.94,NNW,343,3.0,5.0,83,0.00,,,0.00,,2013-03-17 05:52:00,
2013-03-17 02:02:00,44.0,39.0,29.95,NW,319,3.0,5.0,83,0.00,,,0.00,,2013-03-17 06:02:00,
2013-03-17 02:12:00,44.0,39.0,29.95,NW,319,3.0,5.0,83,0.00,,,0.00,,2013-03-17 06:12:00,
2013-03-17 02:22:00,44.0,40.0,29.95,North,11,0.0,3.0,85,0.00,,,0.00,,2013-03-17 06:22:00,
2013-03-17 02:32:00,44.0,40.0,29.94,North,10,0.0,0.0,86,0.00,,,0.00,,2013-03-17 06:32:00,
2013-03-17 02:42:00,44.0,40.0,29.94,North,10,0.0,0.0,86,0.00,,,0.00,,2013-03-17 06:42:00,
2013-03-17 02:52:00,43.0,40.0,29.93,NE,42,0.0,3.0,89,0.00,,,0.00,,2013-03-17 06:52:00,
2013-03-17 03:02:00,43.0,40.0,29.94,NE,45,0.0,0.0,90,0.00,,,0.00,,2013-03-17 07:02:00,
2013-03-17 03:12:00,43.0,40.0,29.94,NE,45,0.0,0.0,90,0.00,,,0.00,,2013-03-17 07:12:00,
2013-03-17 03:22:00,43.0,40.0,29.94,NE,37,0.0,0.0,90,0.00,,,0.00,,2013-03-17 07:22:00,
2013-03-17 03:32:00,43.0,40.0,29.94,NE,35,1.0,0.0,90,0.00,,,0.00,,2013-03-17 07:32:00,
2013-03-17 03:42:00,43.0,40.0,29.94,NE,35,1.0,0.0,90,0.00,,,0.00,,2013-03-17 07:42:00,
2013-03-17 03:52:00,43.0,41.0,29.93,ENE,62,3.0,0.0,91,0.00,,,0.00,,2013-03-17 07:52:00,
2013-03-17 04:03:00,42.0,39.0,29.94,NE,48,0.0,0.0,89,0.00,,,0.00,,2013-03-17 08:03:00,
2013-03-17 04:13:00,42.0,39.0,29.93,ENE,60,1.0,0.0,88,0.00,,,0.00,,2013-03-17 08:13:00,
2013-03-17 04:22:00,42.0,39.0,29.93,ENE,60,1.0,0.0,88,0.00,,,0.00,,2013-03-17 08:22:00,
2013-03-17 04:33:00,42.0,39.0,29.92,NE,51,0.0,0.0,88,0.00,,,0.00,,2013-03-17 08:33:00,
2013-03-17 04:42:00,42.0,39.0,29.92,NE,51,0.0,0.0,88,0.00,,,0.00,,2013-03-17 08:42:00,
2013-03-17 04:52:00,42.0,39.0,29.94,ENE,66,2.0,3.0,90,0.00,,,0.00,,2013-03-17 08:52:00,
2013-03-17 05:03:00,42.0,39.0,29.92,NE,45,0.0,0.0,90,0.00,,,0.00,,2013-03-17 09:03:00,
2013-03-17 05:12:00,42.0,39.0,29.92,NE,45,0.0,0.0,90,0.00,,,0.00,,2013-03-17 09:12:00,
2013-03-17 05:22:00,42.0,40.0,29.92,NE,42,1.0,1.0,91,0.00,,,0.00,,2013-03-17 09:22:00,
2013-03-17 05:32:00,41.0,39.0,29.92,NNW,346,4.0,4.0,92,0.00,,,0.00,,2013-03-17 09:32:00,
2013-03-17 05:43:00,41.0,39.0,29.92,NNW,346,4.0,4.0,92,0.00,,,0.00,,2013-03-17 09:43:00,
2013-03-17 05:53:00,41.0,39.0,29.92,North,6,0.0,2.0,92,0.00,,,0.00,,2013-03-17 09:53:00,
2013-03-17 06:03:00,41.0,40.0,29.98,NW,321,3.0,3.0,95,0.00,,,0.00,,2013-03-17 10:03:00,
2013-03-17 06:13:00,41.0,40.0,29.98,NW,321,3.0,3.0,95,0.00,,,0.00,,2013-03-17 10:13:00,
2013-03-17 06:23:00,41.0,40.0,29.97,NW,315,0.0,0.0,96,0.01,,,0.00,,2013-03-17 10:23:00,
2013-03-17 06:33:00,41.0,40.0,29.96,NW,319,0.0,0.0,96,0.01,,,0.00,,2013-03-17 10:33:00,
2013-03-17 06:42:00,41.0,40.0,29.96,NW,319,0.0,0.0,96,0.01,,,0.00,,2013-03-17 10:42:00,
2013-03-17 06:52:00,40.0,39.0,29.96,NW,326,0.0,0.0,97,0.01,,,0.00,,2013-03-17 10:52:00,
2013-03-17 07:02:00,40.0,39.0,29.96,NE,42,0.0,3.0,97,0.01,,,0.00,,2013-03-17 11:02:00,
2013-03-17 07:12:00,40.0,39.0,29.96,NE,42,0.0,3.0,97,0.01,,,0.00,,2013-03-17 11:12:00,
2013-03-17 07:22:00,40.0,39.0,29.99,NW,312,2.0,0.0,97,0.02,,,0.00,,2013-03-17 11:22:00,
2013-03-17 07:32:00,39.0,38.0,29.99,WNW,301,2.0,2.0,97,0.02,,,0.00,,2013-03-17 11:32:00,
2013-03-17 07:42:00,39.0,38.0,29.99,WNW,301,2.0,2.0,97,0.02,,,0.00,,2013-03-17 11:42:00,
2013-03-17 07:52:00,39.0,38.0,30.00,NW,326,2.0,2.0,97,0.02,,,0.00,,2013-03-17 11:52:00,
2013-03-17 08:02:00,39.0,38.0,30.01,NNW,333,0.0,0.0,97,0.02,,,0.00,,2013-03-17 12:02:00,
2013-03-17 08:12:00,39.0,38.0,30.01,NNW,333,0.0,0.0,97,0.02,,,0.00,,2013-03-17 12:12:00,
2013-03-17 08:22:00,39.0,38.0,30.02,NNW,333,0.0,0.0,97,0.03,,,0.00,,2013-03-17 12:22:00,
2013-03-17 08:33:00,39.0,38.0,30.02,North,7,3.0,0.0,97,0.03,,,0.00,,2013-03-17 12:33:00,
2013-03-17 08:43:00,39.0,38.0,30.02,North,7,3.0,0.0,97,0.03,,,0.00,,2013-03-17 12:43:00,
2013-03-17 08:52:00,38.0,37.0,30.03,NNE,13,0.0,0.0,98,0.03,,,0.00,,2013-03-17 12:52:00,
2013-03-17 09:02:00,38.0,37.0,30.03,ENE,65,1.0,0.0,98,0.03,,,0.00,,2013-03-17 13:02:00,
2013-03-17 09:12:00,38.0,37.0,30.03,ENE,65,1.0,0.0,98,0.03,,,0.00,,2013-03-17 13:12:00,
2013-03-17 09:22:00,38.0,37.0,30.04,ENE,62,1.0,1.0,98,0.03,,,0.00,,2013-03-17 13:22:00,
2013-03-17 09:32:00,38.0,37.0,30.04,NE,52,6.0,6.0,97,0.03,,,0.00,,2013-03-17 13:32:00,
2013-03-17 09:42:00,38.0,37.0,30.04,NE,52,6.0,6.0,97,0.03,,,0.00,,2013-03-17 13:42:00,
2013-03-17 09:52:00,37.0,36.0,30.03,East,89,5.0,5.0,97,0.03,,,0.00,,2013-03-17 13:52:00,
2013-03-17 10:02:00,36.0,35.0,30.04,ENE,65,2.0,2.0,97,0.03,,,0.00,,2013-03-17 14:02:00,
2013-03-17 10:12:00,36.0,35.0,30.04,ENE,65,2.0,2.0,97,0.03,,,0.00,,2013-03-17 14:12:00,
2013-03-17 10:22:00,36.0,35.0,30.03,NE,55,3.0,5.0,97,0.00,,,0.00,,2013-03-17 14:22:00,
2013-03-17 10:33:00,36.0,35.0,30.03,NE,41,1.0,0.0,97,0.00,,,0.00,,2013-03-17 14:33:00,
2013-03-17 10:42:00,36.0,35.0,30.03,NE,41,1.0,0.0,97,0.00,,,0.00,,2013-03-17 14:42:00,
2013-03-17 10:53:00,35.0,34.0,30.04,NE,42,2.0,0.0,97,0.00,,,0.00,,2013-03-17 14:53:00,
2013-03-17 11:02:00,35.0,34.0,30.04,ENE,68,5.0,5.0,97,0.00,,,0.00,,2013-03-17 15:02:00,
2013-03-17 11:12:00,35.0,34.0,30.04,ENE,68,5.0,5.0,97,0.00,,,0.00,,2013-03-17 15:12:00,
2013-03-17 11:23:00,35.0,34.0,30.04,NNE,21,3.0,3.0,98,0.00,,,0.00,,2013-03-17 15:23:00,
2013-03-17 11:33:00,35.0,34.0,30.03,NNE,31,2.0,4.0,98,0.00,,,0.00,,2013-03-17 15:33:00,
2013-03-17 11:43:00,35.0,34.0,30.03,NNE,31,2.0,4.0,98,0.00,,,0.00,,2013-03-17 15:43:00,
2013-03-17 11:53:00,35.0,34.0,30.03,ENE,73,5.0,5.0,98,0.00,,,0.00,,2013-03-17 15:53:00,
2013-03-17 12:03:00,35.0,34.0,30.04,NE,45,4.0,4.0,98,0.00,,,0.00,,2013-03-17 16:03:00,
2013-03-17 12:12:00,35.0,34.0,30.04,NE,45,4.0,4.0,98,0.00,,,0.00,,2013-03-17 16:12:00,
2013-03-17 12:23:00,35.0,34.0,30.04,NE,44,4.0,4.0,97,0.00,,,0.00,,2013-03-17 16:23:00,
2013-03-17 12:33:00,35.0,34.0,30.04,NE,55,3.0,3.0,98,0.00,,,0.00,,2013-03-17 16:33:00,
2013-03-17 12:43:00,35.0,34.0,30.04,NE,55,3.0,3.0,98,0.00,,,0.00,,2013-03-17 16:43:00,
2013-03-17 12:52:00,35.0,34.0,30.04,NE,51,0.0,0.0,97,0.00,,,0.00,,2013-03-17 16:52:00,
2013-03-17 13:03:00,35.0,34.0,30.04,East,84,3.0,3.0,98,0.00,,,0.00,,2013-03-17 17:03:00,
2013-03-17 13:12:00,35.0,34.0,30.04,East,84,3.0,3.0,98,0.00,,,0.00,,2013-03-17 17:12:00,
2013-03-17 13:22:00,35.0,34.0,30.03,East,79,3.0,7.0,98,0.00,,,0.00,,2013-03-17 17:22:00,
2013-03-17 13:33:00,35.0,34.0,30.02,ENE,77,5.0,5.0,98,0.00,,,0.00,,2013-03-17 17:33:00,
2013-03-17 13:42:00,35.0,34.0,30.02,ENE,77,5.0,5.0,98,0.00,,,0.00,,2013-03-17 17:42:00,
2013-03-17 13:53:00,35.0,34.0,30.01,NE,45,5.0,5.0,98,0.00,,,0.00,,2013-03-17 17:53:00,
2013-03-17 14:02:00,36.0,35.0,30.01,NNW,333,1.0,4.0,98,0.00,,,0.00,,2013-03-17 18:02:00,
2013-03-17 14:12:00,36.0,35.0,30.01,NNW,333,1.0,4.0,98,0.00,,,0.00,,2013-03-17 18:12:00,
2013-03-17 14:22:00,36.0,35.0,30.01,ENE,59,3.0,3.0,97,0.00,,,0.00,,2013-03-17 18:22:00,
2013-03-17 14:32:00,35.0,34.0,30.01,ENE,63,4.0,4.0,97,0.00,,,0.00,,2013-03-17 18:32:00,
2013-03-17 14:42:00,35.0,34.0,30.01,ENE,63,4.0,4.0,97,0.00,,,0.00,,2013-03-17 18:42:00,
2013-03-17 14:52:00,35.0,34.0,30.01,North,11,4.0,4.0,97,0.00,,,0.00,,2013-03-17 18:52:00,
2013-03-17 15:02:00,35.0,34.0,30.00,East,84,3.0,6.0,97,0.00,,,0.00,,2013-03-17 19:02:00,
2013-03-17 15:12:00,35.0,34.0,30.00,East,84,3.0,6.0,97,0.00,,,0.00,,2013-03-17 19:12:00,
2013-03-17 15:22:00,35.0,34.0,29.98,North,3,1.0,3.0,97,0.00,,,0.00,,2013-03-17 19:22:00,
2013-03-17 15:33:00,35.0,34.0,29.98,NE,46,2.0,0.0,97,0.00,,,0.00,,2013-03-17 19:33:00,
2013-03-17 15:42:00,35.0,34.0,29.98,NE,46,2.0,0.0,97,0.00,,,0.00,,2013-03-17 19:42:00,
2013-03-17 15:53:00,35.0,34.0,29.97,WNW,302,5.0,5.0,97,0.00,,,0.00,,2013-03-17 19:53:00,
2013-03-17 16:02:00,35.0,34.0,29.98,North,352,0.0,0.0,97,0.00,,,0.00,,2013-03-17 20:02:00,
2013-03-17 16:12:00,35.0,34.0,29.98,North,352,0.0,0.0,97,0.00,,,0.00,,2013-03-17 20:12:00,
2013-03-17 16:22:00,35.0,34.0,29.98,North,7,2.0,2.0,97,0.00,,,0.00,,2013-03-17 20:22:00,
2013-03-17 16:33:00,35.0,34.0,29.98,WSW,245,3.0,0.0,98,0.00,,,0.00,,2013-03-17 20:33:00,
2013-03-17 16:42:00,35.0,34.0,29.98,WSW,245,3.0,0.0,98,0.00,,,0.00,,2013-03-17 20:42:00,
2013-03-17 16:52:00,35.0,34.0,29.98,NNE,28,0.0,4.0,97,0.00,,,0.00,,2013-03-17 20:52:00,
2013-03-17 17:03:00,35.0,34.0,29.99,West,274,4.0,4.0,98,0.00,,,0.00,,2013-03-17 21:03:00,
2013-03-17 17:12:00,35.0,34.0,29.99,West,274,4.0,4.0,98,0.00,,,0.00,,2013-03-17 21:12:00,
2013-03-17 17:22:00,35.0,34.0,29.98,NW,312,0.0,4.0,98,0.00,,,0.00,,2013-03-17 21:22:00,
2013-03-17 17:33:00,34.0,34.0,29.97,NNE,28,5.0,5.0,98,0.01,,,0.00,,2013-03-17 21:33:00,
2013-03-17 17:43:00,34.0,34.0,29.97,NNE,28,5.0,5.0,98,0.01,,,0.00,,2013-03-17 21:43:00,
2013-03-17 17:52:00,34.0,34.0,29.97,ENE,76,6.0,6.0,98,0.01,,,0.00,,2013-03-17 21:52:00,
2013-03-17 18:03:00,35.0,34.0,29.97,NE,55,4.0,4.0,98,0.01,,,0.00,,2013-03-17 22:03:00,
2013-03-17 18:13:00,34.0,34.0,29.97,NE,35,6.0,6.0,98,0.05,,,0.00,,2013-03-17 22:13:00,
2013-03-17 18:23:00,34.0,34.0,29.97,NE,35,6.0,6.0,98,0.05,,,0.00,,2013-03-17 22:23:00,
2013-03-17 18:33:00,35.0,35.0,29.96,ENE,70,2.0,5.0,99,0.05,,,0.00,,2013-03-17 22:33:00,
2013-03-17 18:42:00,35.0,35.0,29.96,ENE,70,2.0,5.0,99,0.05,,,0.00,,2013-03-17 22:42:00,
2013-03-17 18:53:00,35.0,35.0,29.98,East,96,4.0,4.0,99,0.05,,,0.00,,2013-03-17 22:53:00,
2013-03-17 19:03:00,35.0,35.0,29.96,NNE,32,0.0,0.0,99,0.05,,,0.00,,2013-03-17 23:03:00,
2013-03-17 19:12:00,35.0,35.0,29.96,NNE,32,0.0,0.0,99,0.05,,,0.00,,2013-03-17 23:12:00,
2013-03-17 19:22:00,35.0,35.0,29.96,East,82,4.0,4.0,99,0.01,,,0.00,,2013-03-17 23:22:00,
2013-03-17 19:33:00,35.0,35.0,29.96,East,89,3.0,4.0,99,0.01,,,0.00,,2013-03-17 23:33:00,
2013-03-17 19:42:00,35.0,35.0,29.96,East,89,3.0,4.0,99,0.01,,,0.00,,2013-03-17 23:42:00,
2013-03-17 19:53:00,35.0,35.0,29.95,ESE,107,1.0,3.0,99,0.01,,,0.00,,2013-03-17 23:53:00,
2013-03-17 20:03:00,35.0,35.0,29.95,East,87,7.0,7.0,99,0.01,,,0.00,,2013-03-18 00:03:00,
2013-03-17 20:12:00,35.0,35.0,29.95,East,87,7.0,7.0,99,0.01,,,0.00,,2013-03-18 00:12:00,
2013-03-17 20:22:00,35.0,35.0,29.94,NE,37,6.0,10.0,99,0.01,,,0.00,,2013-03-18 00:22:00,
2013-03-17 20:33:00,35.0,35.0,29.94,NNE,30,7.0,7.0,99,0.01,,,0.00,,2013-03-18 00:33:00,
2013-03-17 20:42:00,35.0,35.0,29.94,NNE,30,7.0,7.0,99,0.01,,,0.00,,2013-03-18 00:42:00,
2013-03-17 20:52:00,35.0,35.0,29.95,East,90,2.0,6.0,99,0.01,,,0.00,,2013-03-18 00:52:00,
2013-03-17 21:02:00,36.0,36.0,29.95,East,82,6.0,6.0,99,0.01,,,0.00,,2013-03-18 01:02:00,
2013-03-17 21:12:00,36.0,36.0,29.95,East,82,6.0,6.0,99,0.01,,,0.00,,2013-03-18 01:12:00,
2013-03-17 21:22:00,36.0,36.0,29.95,ENE,66,5.0,5.0,99,0.00,,,0.00,,2013-03-18 01:22:00,
2013-03-17 21:32:00,35.0,35.0,29.95,NNE,15,5.0,7.0,99,0.00,,,0.00,,2013-03-18 01:32:00,
2013-03-17 21:42:00,35.0,35.0,29.95,NNE,15,5.0,7.0,99,0.00,,,0.00,,2013-03-18 01:42:00,
2013-03-17 21:52:00,35.0,35.0,29.95,ENE,77,7.0,7.0,99,0.00,,,0.00,,2013-03-18 01:52:00,
2013-03-17 22:02:00,35.0,35.0,29.94,ENE,75,5.0,5.0,99,0.00,,,0.00,,2013-03-18 02:02:00,
2013-03-17 22:12:00,35.0,35.0,29.94,ENE,75,5.0,5.0,99,0.00,,,0.00,,2013-03-18 02:12:00,
2013-03-17 22:22:00,35.0,35.0,29.92,East,86,6.0,6.0,99,0.01,,,0.00,,2013-03-18 02:22:00,
2013-03-17 22:32:00,35.0,35.0,29.92,ENE,66,1.0,4.0,99,0.01,,,0.00,,2013-03-18 02:32:00,
2013-03-17 22:42:00,35.0,35.0,29.92,ENE,66,1.0,4.0,99,0.01,,,0.00,,2013-03-18 02:42:00,
2013-03-17 22:52:00,35.0,35.0,29.92,ENE,75,2.0,3.0,99,0.01,,,0.00,,2013-03-18 02:52:00,
2013-03-17 23:03:00,35.0,35.0,29.92,ENE,73,3.0,3.0,99,0.01,,,0.00,,2013-03-18 03:03:00,
2013-03-17 23:11:00,35.0,35.0,29.92,ENE,73,3.0,3.0,99,0.01,,,0.00,,2013-03-18 03:11:00,
2013-03-17 23:22:00,35.0,35.0,29.92,NNE,28,2.0,5.0,99,0.01,,,0.00,,2013-03-18 03:22:00,
2013-03-17 23:33:00,35.0,35.0,29.93,ENE,75,4.0,4.0,99,0.01,,,0.00,,2013-03-18 03:33:00,
2013-03-17 23:42:00,35.0,35.0,29.93,ENE,75,4.0,4.0,99,0.01,,,0.00,,2013-03-18 03:42:00,
2013-03-17 23:53:00,35.0,35.0,29.92,ENE,69,2.0,0.0,99,0.01,,,0.00,,2013-03-18 03:53:00,